Regional Weather Roundup
Issued by NWS Goodland, KS

Home | Current Version | Previous Version | Text Only | Print | Product List | Glossary Off
Versions: 1 2 3 4 5 6 7 8 9 10 11 12 13 14 15 16 17 18 19 20 21 22 23 24 25 26 27 28 29 30 31 32 33 34 35 36 37 38 39 40 41 42 43 44 45 46 47 48 49 50

000
ASUS43 KGLD 232308
RWRGLD

GOODLAND FORECAST AREA HOURLY WEATHER ROUNDUP
NATIONAL WEATHER SERVICE GOODLAND KS
500 PM MDT WED JUL 23 2014

...OFFICIAL OBSERVATIONS...

CITY           SKY/WX    TMP DP  RH WIND       PRES   REMARKS
GOODLAND KS    SUNNY     90  59  35 S16       30.19F
HILL CITY KS   SUNNY     86  65  49 E12       30.15F
IMPERIAL NEB   SUNNY     94  59  31 S14       30.14F
MCCOOK NEB     SUNNY     85  63  47 E13       30.16F
AKRON CO       SUNNY     91  57  31 S25       30.21F
BURLINGTON CO  SUNNY     88  62  41 S15G24    30.22F
LIMON CO       MOSUNNY   86  59  39 SE21G28   30.30S
$$

...UNOFFICIAL OBSERVATIONS...

CITY           SKY/WX    TMP DP  RH WIND       PRES   REMARKS
COLBY KS       SUNNY     91  61  35 S12       30.18S
GOVE KS          N/A     92  32  12 MISG        N/A
LENORA KS        N/A     83  32  16 MISG        N/A
NORTON KS      SUNNY     82  61  47 E7        30.16F
OBERLIN KS     FAIR      90  57  33 E10       30.16F
SHARON SPRINGS   N/A     92  67  43 SE15        N/A
TRIBUNE KS     SUNNY     91 N/A N/A SE20G25   30.20F
WAKEENEY KS      N/A     92  55  28 MISG        N/A
TRENTON NEB      N/A     87  32  14 SE16        N/A
KIT CARSON CO    N/A     91  62  37 N12G22      N/A
WRAY CO          N/A     97  55  24 S15G22    30.16F
YUMA CO          N/A     89  63  41 SE16        N/A
$$


USA.gov is the U.S. government's official web portal to all federal, state and local government web resources and services.